Date,TemperatureHighF,TemperatureAvgF,TemperatureLowF,DewpointHighF,DewpointAvgF,DewpointLowF,HumidityHigh,HumidityAvg,HumidityLow,PressureMaxIn,PressureMinIn,WindSpeedMaxMPH,WindSpeedAvgMPH,GustSpeedMaxMPH,PrecipitationSumIn
2013-2-1,18.7,11.8,3.6,12.2,4.4,-2.3,80,72,61,30.35,30.13,14,4,14,0.00
2013-2-2,27.4,20.3,12.6,23.0,16.1,7.3,88,84,78,30.20,29.99,12,3,12,0.00
2013-2-3,26.5,18.7,11.5,17.8,12.2,6.0,83,76,62,30.06,29.95,13,2,13,0.00
2013-2-4,31.7,25.8,21.8,25.3,21.3,17.1,88,83,75,30.05,29.84,8,1,8,0.00
2013-2-5,33.7,27.2,15.5,29.2,22.8,11.7,89,84,77,30.07,29.81,16,3,16,0.00
2013-2-6,40.9,32.9,23.0,28.1,24.6,17.6,81,72,56,30.25,30.07,14,4,14,0.00
2013-2-7,44.3,35.6,30.4,36.4,30.9,25.3,93,83,71,30.14,29.84,16,4,16,0.00
2013-2-8,34.0,30.3,29.0,31.7,27.2,25.0,94,88,81,30.37,29.89,19,6,19,0.00
2013-2-9,38.5,32.6,29.2,30.0,26.9,24.4,87,79,69,30.39,30.11,18,5,18,0.00
2013-2-10,49.5,40.0,31.7,46.5,36.2,25.8,95,86,75,30.11,29.55,26,9,26,0.00
2013-2-11,48.1,35.5,30.8,43.7,27.1,22.5,85,71,68,30.03,29.57,23,8,23,0.00
2013-2-12,33.5,28.6,21.6,24.7,21.7,17.1,84,75,70,30.11,29.94,16,3,16,0.00
2013-2-13,46.6,32.8,21.2,34.5,26.1,17.3,89,77,59,29.94,29.73,14,3,14,0.00
2013-2-14,44.3,37.1,31.9,35.8,29.2,23.0,85,73,58,29.98,29.68,18,5,18,0.00
2013-2-15,32.9,29.0,24.8,26.7,19.6,15.1,86,68,52,30.18,29.97,14,3,14,0.00
2013-2-16,24.8,20.1,16.6,15.7,9.1,5.2,74,62,49,30.17,30.11,12,3,12,0.00
2013-2-17,32.8,23.1,12.2,15.8,9.3,3.3,70,56,39,30.22,30.05,14,3,14,0.00
2013-2-18,54.4,40.6,25.9,44.2,31.9,14.3,92,72,57,30.05,29.45,27,12,27,0.00
2013-2-19,35.6,19.8,15.3,32.0,12.8,7.4,87,74,65,30.15,29.55,23,8,23,0.00
2013-2-20,25.9,19.6,13.1,18.8,11.0,5.0,75,69,59,30.34,30.15,11,3,11,0.00
2013-2-21,30.4,27.5,24.5,23.4,20.9,18.5,87,76,70,30.36,30.01,14,4,14,0.00
2013-2-22,35.3,29.3,23.4,32.3,25.4,20.3,90,85,78,30.02,29.83,14,4,14,0.00
2013-2-23,33.1,28.3,24.8,24.3,21.3,19.3,83,75,62,29.97,29.92,12,2,12,0.00
2013-2-24,41.9,29.6,17.6,28.2,21.1,13.2,85,71,52,30.15,29.97,7,1,7,0.00
2013-2-25,45.7,33.5,20.0,31.8,24.7,15.8,86,71,53,30.19,29.97,14,2,14,0.00
2013-2-26,36.5,34.1,32.8,31.8,28.8,23.9,93,82,60,29.98,29.50,17,4,17,0.00
2013-2-27,35.3,33.6,32.8,33.1,31.6,30.7,94,92,91,29.67,29.49,14,2,14,0.00
2013-2-28,35.5,33.2,30.6,33.8,30.8,27.2,95,91,82,30.03,29.67,14,5,14,0.00